Location: DARK SKY Beskydy - Park tmavé oblohy, www.darkskybeskydy.cz
(49.4926°N, 18.5016°E)
Time: 18:37:59
(UTC+02:00)

PCSat - Pass Details

Date: 11 August 2024
Orbit: 781 x 793 km, 67.1° (Epoch: 08 September)

Event Time Altitude Azimuth Distance (km) Brightness Sun altitude
Rises 22:15:10 0° 313° (NW) 3,297 14.5 -17.0°
Reaches altitude 10° 22:19:14 10° 342° (NNW) 2,369 13.1 -17.4°
Maximum altitude 22:21:28 12° 7° (N) 2,201 12.5 -17.6°
Drops below altitude 10° 22:23:42 10° 32° (NNE) 2,369 12.3 -17.8°
Sets 22:27:46 0° 61° (ENE) 3,297 12.7 -18.2°
